NOAA NWS Hourly Roundups by Site

Regional Weather Roundup for Jackson, KY

To Select Another Site Choose from List

Select Site:  

000
ASUS43 KJKL 220510
RWRJKL

EAST KENTUCKY HOURLY WEATHER ROUNDUP
NATIONAL WEATHER SERVICE JACKSON KY
1200 AM EST FRI JAN 22 2021

NOTE: "FAIR" INDICATES FEW OR NO CLOUDS BELOW 12,000 FEET WITH
NO SIGNIFICANT WEATHER AND/OR OBSTRUCTIONS TO VISIBILITY.

* THESE REPORTS ARE NOT UNDER NWS QUALITY CONTROL AND MAY NOT
  REPORT WEATHER SUCH AS PRECIPITATION AND FOG.

KYZ079-080-083-085-087-088-110-112-115-119-120-220600
...EASTERN KENTUCKY...

CITY           SKY/WX    TMP DP  RH WIND       PRES   REMARKS
JACKSON        PTCLDY    37  32  82 SW7       29.90F WCI  32
LONDON         PTCLDY    31  28  89 CALM      29.93F FOG
SOMERSET*      PTCLDY    32  32 100 CALM      29.96S FOG
MONTICELLO*    FOG       27  27 100 W9        29.97F VSB 1/4 WCI  18
WILLIAMSBURG*    N/A     36  36 100 CALM      29.94S
MIDDLESBORO*   FOG       31  31 100 CALM      29.95F VSB 1/4
HARLAN APT*    CLOUDY    30  30 100 CALM      29.94S VSB<1/4
PIKE CO APT*     N/A     36  35  96 SW5       29.90S WCI  32
BIG SANDY APT* CLEAR     37  35  90 SW6       29.91S WCI  33
MOREHEAD APT*  CLEAR     37  34  87 SW10      29.89F WCI  30
ASHLAND*       CLEAR     34  33  96 CALM      29.89R
$$

KYZ035-036-041-042-044-050-067-078-099-220600
...CENTRAL KENTUCKY...

CITY           SKY/WX    TMP DP  RH WIND       PRES   REMARKS
MT STERLING*   PTCLDY    36  34  93 SW8       29.91F WCI  29
FLEMING/MASON* CLEAR     35  32  89 W7        29.88F WCI  29
DANVILLE*      PTCLDY    34  34 100 CALM      29.94R
RICHMOND*        N/A     36  34  93 SW7       29.92S WCI  30
LEXINGTON      PTCLDY    34  31  88 SW7       29.89F WCI  28
FRANKFORT      CLEAR     34  31  88 SW7       29.89S WCI  28
LOUISVILLE     PTCLDY    42  34  73 W12       29.91S
LEBANON*         N/A     36  36 100 N6        29.93R WCI  31
GLASGOW*       MOCLDY    35  35 100 CALM      29.96R FOG
BOWLING GREEN  PTCLDY    38  35  89 SW3       29.96S
$$

KYZ091>093-OHZ055-061-077-WVZ005-015-034-035-042-220600
...SOUTHERN OHIO/WEST VIRGINIA...

CITY           SKY/WX    TMP DP  RH WIND       PRES   REMARKS
COVINGTON      CLEAR     38  24  57 SW7       29.85S WCI  33
COLUMBUS       CLEAR     34  22  61 W9        29.78R WCI  27
DAYTON         PTCLDY    38  24  57 W17       29.81R WCI  28
WILMINGTON     CLEAR     39  22  50 W17       29.80S WCI  30
HUNTINGTON     CLEAR     38  32  79 SW5       29.87R WCI  34
CHARLESTON     CLEAR     38  33  82 SW13      29.86S WCI  30
PINEVILLE*       N/A     28  27  96 MISG      29.93R
BECKLEY        CLEAR     32  29  88 SW8       29.83S WCI  25
BLUEFIELD      CLEAR     30  28  92 W8        29.84S WCI  22
LOGAN CO APT*    N/A     36  34  93 SW3       29.88S
$$

VAZ002-007-008-TNZ017-027-036-066-071-220600
...SOUTHWEST VIRGINIA/EAST TENNESSEE...

CITY           SKY/WX    TMP DP  RH WIND       PRES   REMARKS
WISE*          PTCLDY    32  32 100 W6        29.89S WCI  26
JONESVILLE*      N/A     36  36 100 CALM      29.95S FOG
ABINGDON*      CLOUDY    35  32  89 W7        29.91R WCI  29
BRISTOL        MOCLDY    37  35  92 CALM      29.92F
MORRISTOWN*    CLEAR     39  39 100 CALM      29.91F FOG
SEVIERVILLE*   CLEAR     36  36 100 CALM      29.93F FOG
KNOXVILLE      FOG       39  39 100 CALM      29.92F VSB 1/2
LAFOLLETTE*    FOG       36  36 100 CALM      29.97S VSB 0
OAK RIDGE      MOCLDY    36  36 100 CALM      29.95F
CROSSVILLE     FOG       34  33  96 CALM      29.93S VSB 1/4
NASHVILLE      MOCLDY    40  37  89 CALM      29.97F
$$

...KEY TO REMARKS...
VSB - VISIBILITY IN MILES
WCI - WIND CHILL INDEX
HX  - HEAT INDEX

$$


 

View Past Reports for Jackson, KY.

Products Courtesy of NOAA-NWS
NWS Information Parsing Script by Ken True at Saratoga Weather - Script by SE Lincoln Weather.